Regional Weather Roundup
Issued by NWS Sterling, VA

Home | Current Version | Previous Version | Graphics & Text | Print | Product List | Glossary On
Versions: 1 2 3 4 5 6 7 8 9 10 11 12 13 14 15 16 17 18 19 20 21 22 23 24 25 26 27 28 29 30 31 32 33 34 35 36 37 38 39 40 41 42 43 44 45 46 47 48 49 50
000
ASUS41 KLWX 290710
RWRLWX

REGIONAL WEATHER ROUNDUP
NATIONAL WEATHER SERVICE BALTIMORE MD/WASHINGTON DC
300 AM EDT SUN MAR 29 2015

Note: "FAIR" indicates few or no clouds below 12,000 feet
with no significant weather and/or obstructions to visibility.
 TC=TEMPERATURE CELSIUS

 * =Non NWS site. Station does not report precipitation (e.g. rain,
    snow, etc.), thunder, or fog.

DCZ001-MDZ009-015-VAZ040>042-051-053>054-290800-
WASHINGTON METRO

CITY           SKY/WX    TMP DP  RH WIND       PRES   REMARKS
WASHINGTON NAT CLEAR     30   4  33 NW12G22   30.30R WCI  20
DULLES         CLEAR     25   5  42 NW10      30.29R WCI  15
ANDREWS AFB    CLEAR     27   2  34 NW13      30.26R WCI  16
FT BELVOIR     CLEAR     28   3  34 NW10      30.29R WCI  19
QUANTICO       CLEAR     30   2  30 N13G25    30.31S WCI  20
COLLEGE PARK*  CLEAR     28   3  34 NW8       30.28S WCI  20
LEESBURG*      CLEAR     27  10  50 NW12      30.30S WCI  16
MANASSAS*      CLEAR     25  10  54 NW12      30.30S WCI  14
GAITHERSBURG*  CLEAR     25   1  36 NW6       30.30S

$$

MDZ006>007-011-014-290800-
BALTIMORE METRO

CITY           SKY/WX    TMP DP  RH WIND       PRES   REMARKS
BWI AIRPORT    CLEAR     26   3  37 NW9       30.26R WCI  17
MD SCIENCE CTR   N/A     29   3  33 MISG      30.26R
MARTIN STATE   CLEAR     27  12  54 W8        30.28R WCI  18
ANNAPOLIS      CLEAR     30  12  47 N16       30.26R WCI  19

$$

MDZ012-015-019>023-290800-
MARYLAND EASTERN SHORE

CITY           SKY/WX    TMP DP  RH WIND       PRES   REMARKS
OCEAN CITY     CLEAR     27  13  55 NW7       30.21S
SALISBURY      CLEAR     28  12  51 NW8       30.22R WCI  20
BAY BRIDGE AP*   N/A     30   7  37 N14G22    30.26R WCI  20
CAMBRIDGE*     PTCLDY    32  10  40 NW14G20   30.23S WCI  22
EASTON*        CLEAR     31   9  40 N10G22    30.28R WCI  22

$$

MDZ017>025-290800-
SOUTHERN MARYLAND

CITY           SKY/WX    TMP DP  RH WIND       PRES   REMARKS
PATUXENT RIVER FAIR      30   6  36 NW23G31   30.25R WCI  17
ST INIGOES     CLEAR     30   5  34 NW12      30.25S WCI  20
LEONARDTOWN*   CLEAR     28   5  37 NW7       30.27S

$$

MDZ003>005-290800-
NORTH CENTRAL MARYLAND

CITY           SKY/WX    TMP DP  RH WIND       PRES   REMARKS
FREDERICK*     CLEAR     25   3  39 NW3       30.31S
HAGERSTOWN APT CLEAR     25   6  44 NW15      30.27R WCI  13
WESTMINSTER*   PTCLDY    23   3  42 NW6       30.23S

$$

MDZ501>502-290800-
WESTERN MARYLAND

CITY           SKY/WX    TMP DP  RH WIND       PRES   REMARKS
OAKLAND*       CLEAR     12   9  85 NW9       30.16R WCI   0
CUMBERLAND*    CLEAR     25   5  42 NW5       30.35R

$$

VAZ025>031-290800-
SHENANDOAH VALLEY

CITY           SKY/WX    TMP DP  RH WIND       PRES   REMARKS
WINCHESTER*    CLEAR     27   1  33 NW12      30.29R WCI  16
FRONT ROYAL*   FAIR      25   7  46 CALM      30.28S
LURAY*         FAIR      28  10  47 N5        30.27S
NEW MARKET*    FAIR      22   7  52 CALM      30.27S
STAUNTON*      CLEAR     23   8  53 CALM      30.27S
WAYNESBORO*    FAIR      21   7  54 W3        30.24S

$$

WVZ021-048>050-054>055-290800-
EASTERN WEST VIRGINIA PANHANDLE

CITY           SKY/WX    TMP DP  RH WIND       PRES   REMARKS
MARTINSBURG    CLEAR     25   3  38 CALM      30.30R
PETERSBURG*    CLEAR     25   3  39 NW6       30.31S

$$

VAZ036>039-050-290800-
CENTRAL FOOTHILLS

CITY           SKY/WX    TMP DP  RH WIND       PRES   REMARKS
CHARLOTTESVILL CLEAR     27   8  44 N5        30.28R
CULPEPER*      CLEAR     28   7  40 N6        30.31R
ORANGE*        CLEAR     23  18  80 CALM      30.30S
GORDONSVILLE*  FAIR      24  12  62 N3        30.28S
WARRENTON*     FAIR      28  13  54 NW12      30.29S WCI  18

$$

VAZ055>057-290800-
NORTH AND CENTRAL PIEDMONT

CITY           SKY/WX    TMP DP  RH WIND       PRES   REMARKS
FREDERICKSBRG* CLEAR     29  10  44 NW12      30.30R WCI  20
STAFFORD*      CLEAR     25   7  45 NW12      30.34S WCI  15

$$

NCZ024-NYZ072-PAZ021-071-VAZ022-071-290800-
OTHER REGIONAL OBSERVATIONS

CITY           SKY/WX    TMP DP  RH WIND       PRES   REMARKS
NEW YORK CITY  CLOUDY    27   9  46 VRB7      30.16R
PHILADELPHIA   MOCLDY    27   4  37 NW14      30.21S WCI  16
PITTSBURGH     CLEAR     17   8  67 W3        30.30R
ROANOKE        CLEAR     27   6  41 NW9       30.31R WCI  18
RICHMOND       CLEAR     29  10  45 NW5       30.29R
RALEIGH        CLEAR     29  11  47 CALM      30.31S

$$

ANZ530>537-290800-
MARINE OBSERVATIONS

STATION/POSITION TIME  TEMP    WIND        PRES
                       AIR SEA DIR/SP/G
                 (UTC) (F)     (DEG/KT/KT) (MB)
THOMAS PT LIGHT  0700                        N/A

$$




USA.gov is the U.S. government's official web portal to all federal, state and local government web resources and services.